Wind_Speed
19 19 19 19 19 19 19 17 17 18 18 17 17 17 17 17 17 17 17 17 17 17 16 16 15 15 15 15 15 14 14 14 15 15 15 15 15 15 15 16 15 14 14 13 14 14 13 13 14
20 19 20 20 20 20 19 18 19 20 20 19 19 18 18 18 18 18 18 18 18 18 18 18 17 17 17 17 16 16 16 16 16 17 17 17 17 17 17 17 17 16 16 16 16 16 16 15 15
21 21 21 21 21 20 20 20 20 21 21 21 21 20 20 19 19 19 19 19 19 19 19 19 19 19 19 18 18 18 19 19 19 19 19 19 19 19 19 19 19 18 18 18 18 18 18 18 17
22 22 23 23 21 21 21 21 21 21 22 22 22 22 21 22 22 21 21 21 21 21 20 20 21 21 21 20 20 21 21 21 21 21 21 22 21 21 21 21 20 20 20 20 20 20 20 19 20
23 23 24 24 22 21 22 22 22 23 23 22 23 23 23 23 23 23 23 23 22 22 22 22 22 22 22 22 22 23 23 23 23 23 23 23 23 23 23 23 22 22 22 21 21 22 22 22 22
24 24 24 24 23 22 22 23 23 23 23 24 24 24 24 24 24 24 24 24 24 24 24 24 24 24 24 24 24 25 25 25 25 25 25 25 25 25 25 24 24 25 24 24 23 23 23 24 24
24 25 25 24 24 24 24 24 24 24 24 25 25 26 26 26 26 26 26 26 26 26 26 27 27 26 27 27 27 27 27 27 27 27 27 27 27 27 28 28 27 27 27 27 26 26 26 26 26
24 25 25 25 25 25 25 25 25 26 26 26 27 27 27 27 28 28 27 28 28 28 29 29 29 29 29 29 29 30 30 30 30 29 29 29 30 30 30 31 31 30 30 29 29 29 29 28 28
25 25 25 24 25 26 26 26 26 27 27 27 28 28 29 29 29 29 29 29 30 30 31 31 31 32 32 32 32 32 32 32 32 32 32 32 32 32 32 33 33 33 32 32 32 32 31 31 30
25 25 25 25 26 26 27 27 27 28 28 29 30 30 30 31 31 31 31 31 32 32 33 33 34 34 34 34 35 35 35 35 35 35 34 34 35 35 35 35 35 35 35 35 35 34 34 34 34
26 26 26 26 27 27 28 28 29 29 30 30 30 31 32 32 32 33 33 33 33 34 35 35 36 37 37 37 36 37 37 37 37 37 37 37 37 37 37 37 37 37 37 37 37 37 37 36 36
27 27 27 28 28 28 29 29 30 30 31 32 32 32 33 33 34 35 35 35 35 35 35 36 37 37 38 38 38 39 39 39 39 39 39 39 39 38 39 39 39 39 39 39 38 38 38 38 38
26 26 27 29 30 30 30 30 31 31 32 33 33 34 34 34 35 35 36 36 36 36 36 36 37 37 38 39 39 40 40 40 40 40 40 40 39 39 40 39 39 40 40 41 41 41 41 40 40
27 28 28 29 30 30 31 31 31 31 33 34 35 36 36 36 36 36 37 37 37 37 37 37 37 38 38 38 39 40 40 41 41 41 41 40 40 40 40 41 41 41 41 42 42 43 43 43 42
27 29 29 30 30 31 32 32 32 33 34 35 35 36 37 37 37 37 38 38 38 38 38 38 38 38 39 39 39 40 41 40 41 40 41 41 41 41 41 42 42 43 43 43 43 44 44 44 44
28 29 30 29 30 31 33 33 32 34 34 35 35 36 37 38 38 38 38 38 38 38 39 39 39 39 39 39 39 39 40 41 41 41 41 41 41 41 41 42 43 44 45 45 45 46 46 46 46
27 28 29 29 30 31 33 33 33 34 34 35 35 35 36 37 37 37 38 38 38 38 39 39 39 39 39 39 40 39 39 40 41 42 42 42 42 42 42 43 43 44 44 45 46 46 47 47 47
28 28 29 29 30 31 32 32 32 33 33 34 34 34 34 35 36 37 37 38 38 38 38 39 39 39 39 40 40 41 41 41 41 41 42 43 43 42 43 43 44 43 44 45 45 46 47 48 49
27 28 29 29 30 31 31 32 32 32 32 33 33 33 33 33 34 35 36 37 37 37 37 37 38 39 39 40 40 41 41 41 42 42 42 43 44 43 43 43 44 44 45 45 46 46 47 48 49
26 27 28 28 28 29 30 31 31 32 32 33 33 33 33 33 33 33 34 35 35 35 35 36 37 39 40 40 41 42 42 42 43 44 44 44 45 45 45 44 42 43 44 45 46 46 46 47 48
26 26 26 27 27 29 30 30 30 31 31 32 32 32 32 32 32 31 31 31 32 32 34 35 37 38 39 40 41 41 41 42 43 44 44 45 45 45 45 45 44 44 44 44 43 44 46 46 46
25 25 25 26 27 28 29 30 28 29 29 29 30 30 30 31 31 30 30 30 31 31 32 34 36 37 39 39 40 40 41 41 42 43 44 44 45 45 45 45 45 45 44 44 43 43 44 44 45
24 24 25 25 27 28 28 29 27 28 27 27 28 28 29 29 30 30 30 31 31 31 32 32 34 36 37 38 39 40 40 41 42 42 43 43 44 44 44 44 44 44 45 45 45 44 44 44 45
24 24 24 25 26 27 26 28 27 26 27 27 27 27 28 28 29 30 30 31 31 31 32 32 33 34 35 36 37 38 39 40 41 41 42 42 42 43 43 44 44 44 44 44 44 44 45 45 46
23 23 25 26 26 26 25 26 26 26 27 27 27 28 28 29 29 30 30 31 30 31 32 33 34 35 35 36 36 37 38 39 40 40 40 40 41 42 42 42 42 43 43 43 43 43 43 44 45
23 23 24 26 27 26 25 25 25 25 25 26 27 28 28 29 29 30 30 31 31 32 32 33 34 35 37 38 38 38 38 38 38 38 38 38 39 40 41 42 42 42 43 43 43 43 43 43 43
24 24 24 26 27 26 25 25 25 25 25 26 27 27 28 29 29 29 30 31 31 32 33 34 35 35 36 37 37 38 38 38 37 37 36 37 38 39 39 41 42 42 42 43 43 42 42 42 43
24 25 25 26 27 27 27 25 26 25 25 26 27 27 28 28 29 29 30 31 32 33 34 34 35 35 35 35 36 35 36 36 36 36 36 37 38 38 38 39 39 40 41 41 41 40 41 41 42
24 25 25 26 27 28 28 26 26 25 26 27 27 27 28 28 29 30 31 31 32 32 33 34 35 35 35 35 34 34 34 34 35 35 36 36 37 37 38 38 39 39 39 39 40 40 40 41 41
25 25 25 26 27 28 29 28 26 25 26 26 27 28 29 30 30 30 31 31 32 33 33 34 34 34 34 34 33 33 33 34 35 35 36 36 37 37 38 38 39 39 39 39 39 40 40 40 40
Wind_Direction
243 243 243 244 244 245 247 248 249 248 250 251 252 252 252 253 253 255 255 255 255 256 257 259 260 262 261 262 260 258 256 255 254 253 252 251 251 251 251 251 248 245 246 248 249 248 249 248 246
244 244 244 244 244 245 246 248 250 250 251 252 253 253 253 254 254 255 254 255 255 256 257 258 260 262 262 261 261 258 257 257 255 254 253 254 254 253 253 253 253 250 249 250 250 251 252 253 252
245 245 245 245 244 246 248 248 250 251 252 253 255 254 254 255 254 255 255 256 255 256 257 258 260 260 261 261 259 258 258 258 257 256 254 254 256 256 255 255 255 254 252 252 253 253 254 256 257
245 246 246 245 246 247 249 249 251 252 252 255 255 256 256 257 257 256 257 257 257 257 258 258 259 260 260 261 261 260 259 259 259 258 256 255 255 256 257 257 256 255 254 254 254 254 254 255 256
246 246 247 246 247 248 248 250 252 252 253 255 256 257 258 259 259 258 258 258 258 258 258 259 259 260 261 261 262 262 261 260 258 257 256 255 255 257 258 258 257 256 256 255 255 254 255 256 255
248 248 248 248 248 249 249 251 253 254 255 257 258 259 258 259 261 260 259 259 259 259 259 259 260 261 262 262 262 262 262 262 261 259 258 256 256 257 258 258 258 258 257 256 255 256 257 257 257
249 250 249 249 249 250 250 251 253 255 257 258 259 260 260 259 261 262 261 261 260 260 261 261 261 261 262 262 262 262 261 261 260 260 259 258 257 256 257 258 258 257 257 257 257 257 258 258 259
250 250 249 249 250 250 251 252 254 257 259 260 260 260 261 261 262 263 263 262 262 262 262 263 263 262 262 262 262 262 262 261 260 260 260 259 259 258 258 258 258 258 257 257 258 257 257 258 259
250 250 250 251 251 252 253 254 255 257 259 260 261 262 263 263 263 263 264 264 264 263 263 263 263 264 263 263 262 262 262 262 261 260 260 260 259 259 259 259 258 258 258 257 257 258 258 258 258
250 251 252 252 253 254 255 256 256 257 259 261 262 263 264 265 264 264 265 266 265 265 264 264 264 264 264 263 262 262 262 262 262 261 260 260 260 260 260 259 258 258 257 257 257 257 257 258 259
251 253 253 254 255 255 257 258 258 259 260 261 262 264 264 265 265 265 265 266 266 266 265 264 264 263 263 263 263 262 262 262 262 262 262 261 261 261 260 259 258 257 257 257 257 257 257 258 259
254 255 255 256 256 257 258 259 259 260 261 262 262 263 263 264 264 265 266 266 266 266 265 264 264 263 263 263 263 263 263 263 262 262 262 261 261 261 261 260 258 257 257 257 256 256 257 257 258
256 257 257 257 257 258 259 260 261 262 263 263 263 264 264 264 265 265 265 265 265 265 265 264 264 264 264 264 264 265 265 264 263 262 261 261 261 260 260 260 259 257 257 257 256 256 256 257 257
258 259 259 259 259 260 261 262 263 263 264 264 265 265 265 265 265 265 265 264 264 265 265 264 264 265 265 265 265 265 266 265 264 263 262 262 261 261 260 259 259 258 258 257 257 257 257 257 258
261 262 262 262 262 262 263 263 264 265 266 266 267 267 267 266 265 264 264 264 265 265 265 265 264 264 265 265 266 266 266 265 265 264 263 263 263 263 261 260 260 260 259 259 259 258 257 257 257
262 264 264 264 265 265 265 265 265 266 267 267 268 268 267 266 265 265 264 264 265 265 265 265 265 264 265 266 266 266 265 265 265 264 264 263 263 264 263 262 261 261 261 260 259 259 258 257 258
265 267 267 268 268 268 267 267 267 267 268 269 269 269 269 267 265 265 264 264 264 264 264 265 265 265 265 266 266 266 264 264 265 265 264 264 264 264 263 262 262 262 262 261 260 260 259 259 259
269 271 271 270 270 269 269 269 268 268 269 269 270 270 270 269 267 266 265 264 264 264 264 264 264 265 265 266 266 265 264 264 265 265 266 265 265 265 265 263 263 263 262 261 261 260 261 261 260
272 273 273 273 272 272 272 271 270 269 270 270 270 270 270 270 269 267 266 265 264 264 265 265 264 264 265 266 266 265 265 265 266 266 266 266 266 266 266 266 266 264 263 263 263 262 262 262 261
274 274 274 273 274 274 273 272 271 270 270 269 269 269 270 270 270 269 268 267 266 266 265 264 265 265 266 266 266 265 265 266 267 268 268 268 268 267 267 268 266 265 265 265 264 263 262 262 261
275 276 276 275 275 274 274 273 272 272 271 270 269 269 269 270 271 271 270 269 268 267 268 267 266 267 267 267 267 266 265 266 267 268 268 268 269 268 268 268 268 267 266 266 266 265 263 262 262
279 278 277 277 277 278 278 277 274 273 271 269 269 269 270 270 270 271 271 271 270 269 269 269 269 269 269 269 268 268 267 268 268 268 269 269 270 269 269 269 269 268 268 267 268 267 265 264 263
281 280 278 279 280 280 279 279 276 273 270 269 270 270 271 272 272 272 272 273 272 271 271 271 270 270 271 270 269 269 270 270 270 270 269 270 270 269 269 268 268 268 268 267 267 268 265 265 264
282 281 281 282 283 282 282 280 278 274 273 272 272 272 273 273 274 274 274 273 273 273 273 273 273 272 272 272 271 271 271 271 271 271 270 270 269 269 269 268 268 268 269 268 268 267 266 265 264
283 283 285 286 286 286 285 282 280 277 275 274 273 274 275 276 276 275 275 274 274 274 273 274 274 275 274 273 273 272 273 273 272 272 271 270 270 269 268 269 269 269 270 269 268 268 267 266 265
285 284 285 287 289 290 290 287 284 281 278 276 276 276 277 279 278 277 276 275 275 274 275 275 276 277 276 274 273 272 272 272 272 273 272 271 270 269 269 269 269 270 270 269 269 269 268 266 264
286 284 285 286 288 290 291 290 286 284 281 279 279 278 279 280 280 278 277 276 276 277 277 277 278 279 278 275 274 272 272 273 273 273 273 273 272 272 272 271 271 271 271 270 269 268 268 266 264
285 284 285 285 288 290 292 291 291 288 285 283 282 281 282 281 280 279 278 278 278 279 278 278 279 279 278 277 275 274 273 273 274 274 274 274 273 272 273 272 272 271 270 270 269 268 268 266 264
284 283 283 283 284 288 291 292 292 290 287 285 284 284 283 282 282 280 280 280 280 279 278 279 279 279 278 277 276 274 273 274 274 274 274 275 274 273 273 273 272 272 271 270 268 268 268 267 265
283 283 282 282 284 285 287 290 290 290 288 287 285 285 284 283 284 284 282 281 281 281 280 280 280 278 277 276 275 274 273 274 274 274 275 275 275 275 274 273 273 273 272 270 269 268 268 267 265
Height
5826 5827 5828 5829 5831 5831 5832 5833 5833 5834 5834 5835 5835 5836 5837 5837 5838 5841 5839 5838 5838 5838 5838 5839 5839 5839 5839 5839 5839 5838 5838 5838 5838 5839 5839 5839 5839 5840 5840 5840 5840 5841 5841 5841 5841 5842 5842 5843 5843
5822 5823 5824 5825 5826 5827 5829 5829 5829 5830 5830 5831 5831 5832 5833 5833 5833 5834 5834 5834 5834 5835 5835 5835 5835 5835 5835 5836 5836 5835 5835 5835 5835 5836 5836 5836 5836 5837 5837 5837 5837 5838 5838 5838 5839 5839 5839 5839 5840
5817 5818 5820 5821 5822 5824 5825 5825 5825 5825 5826 5827 5828 5828 5829 5829 5829 5830 5830 5830 5831 5831 5831 5831 5831 5832 5832 5832 5832 5832 5832 5832 5832 5832 5832 5833 5833 5833 5833 5833 5834 5834 5835 5835 5835 5836 5836 5836 5837
5813 5815 5816 5817 5818 5819 5820 5821 5821 5821 5822 5823 5823 5824 5825 5825 5825 5826 5826 5826 5827 5827 5827 5827 5827 5827 5827 5827 5827 5828 5828 5828 5828 5828 5828 5829 5829 5829 5829 5830 5830 5830 5831 5831 5832 5832 5832 5833 5833
5808 5810 5811 5812 5814 5815 5815 5816 5816 5816 5817 5818 5818 5819 5820 5820 5820 5821 5821 5822 5822 5822 5822 5823 5823 5823 5823 5823 5823 5823 5823 5823 5823 5823 5823 5824 5824 5824 5825 5825 5825 5826 5827 5827 5827 5828 5828 5829 5829
5804 5805 5807 5808 5809 5810 5810 5811 5811 5812 5812 5813 5813 5814 5814 5815 5815 5816 5816 5817 5817 5817 5817 5818 5818 5818 5818 5817 5817 5817 5817 5818 5818 5818 5818 5818 5819 5819 5819 5820 5820 5821 5821 5822 5822 5823 5823 5824 5824
5799 5800 5801 5803 5804 5805 5806 5806 5806 5806 5807 5808 5808 5809 5809 5810 5810 5810 5810 5811 5811 5811 5812 5812 5812 5812 5812 5812 5811 5811 5811 5812 5812 5812 5812 5812 5813 5813 5813 5814 5814 5815 5815 5816 5817 5817 5818 5819 5819
5793 5795 5796 5797 5798 5799 5800 5800 5800 5801 5801 5802 5803 5803 5803 5804 5804 5804 5804 5805 5805 5805 5805 5805 5805 5805 5805 5805 5805 5805 5805 5805 5805 5805 5806 5806 5806 5806 5807 5807 5808 5808 5809 5810 5810 5811 5812 5813 5813
5787 5790 5790 5792 5793 5794 5794 5795 5795 5795 5795 5796 5796 5797 5797 5797 5798 5798 5798 5798 5798 5798 5798 5798 5798 5798 5798 5798 5797 5797 5797 5797 5798 5798 5798 5798 5798 5799 5799 5799 5800 5801 5802 5803 5803 5804 5805 5806 5806
5782 5784 5785 5786 5787 5787 5788 5788 5789 5789 5789 5790 5790 5790 5790 5790 5790 5791 5791 5791 5791 5791 5791 5791 5791 5790 5790 5789 5789 5789 5789 5789 5789 5789 5790 5790 5790 5790 5791 5791 5792 5793 5794 5795 5796 5797 5798 5798 5799
5776 5778 5779 5779 5780 5781 5781 5782 5782 5782 5783 5783 5783 5783 5783 5783 5783 5783 5783 5783 5783 5783 5783 5782 5782 5782 5781 5781 5781 5781 5780 5780 5780 5780 5780 5781 5781 5781 5782 5782 5783 5784 5785 5786 5787 5788 5789 5790 5791
5770 5771 5772 5773 5773 5773 5774 5774 5775 5775 5776 5775 5775 5775 5775 5775 5775 5775 5775 5775 5774 5774 5774 5774 5773 5773 5772 5772 5772 5771 5771 5771 5771 5770 5771 5771 5771 5772 5772 5773 5773 5774 5775 5777 5778 5779 5780 5781 5782
5763 5764 5765 5765 5765 5766 5766 5766 5767 5767 5767 5767 5767 5767 5767 5766 5766 5766 5766 5766 5765 5765 5765 5764 5764 5763 5763 5762 5762 5762 5761 5761 5761 5760 5761 5761 5761 5762 5762 5763 5763 5764 5765 5767 5768 5769 5770 5772 5773
5757 5757 5757 5758 5758 5758 5758 5758 5759 5759 5758 5758 5758 5758 5757 5757 5757 5757 5756 5756 5756 5756 5755 5755 5755 5754 5754 5753 5752 5752 5751 5751 5751 5751 5751 5751 5751 5751 5752 5753 5753 5754 5755 5756 5757 5759 5760 5761 5762
5749 5750 5750 5750 5750 5749 5750 5750 5751 5750 5749 5749 5749 5748 5748 5747 5747 5747 5747 5747 5747 5746 5746 5746 5745 5745 5744 5743 5742 5742 5741 5741 5741 5741 5741 5741 5741 5741 5742 5742 5743 5744 5744 5745 5746 5748 5749 5750 5752
5742 5742 5742 5743 5742 5741 5741 5742 5742 5740 5739 5739 5739 5738 5737 5737 5737 5737 5737 5737 5737 5737 5736 5736 5735 5735 5734 5734 5733 5732 5731 5731 5731 5731 5731 5731 5731 5731 5732 5732 5732 5733 5733 5734 5735 5737 5738 5739 5740
5735 5734 5734 5734 5733 5732 5731 5732 5732 5730 5730 5729 5729 5728 5727 5727 5727 5726 5726 5726 5726 5726 5726 5726 5725 5725 5724 5724 5723 5722 5721 5721 5721 5720 5720 5721 5721 5721 5721 5721 5721 5722 5722 5723 5724 5725 5726 5727 5729
5728 5727 5726 5726 5725 5724 5723 5723 5722 5721 5720 5720 5719 5718 5717 5717 5716 5716 5716 5716 5716 5716 5716 5715 5715 5715 5714 5713 5713 5712 5711 5711 5710 5710 5710 5710 5710 5710 5710 5710 5710 5710 5711 5711 5712 5713 5714 5715 5716
5719 5718 5718 5717 5716 5715 5714 5714 5713 5712 5711 5710 5710 5709 5708 5707 5706 5706 5705 5705 5705 5705 5705 5705 5705 5704 5704 5703 5702 5702 5701 5701 5700 5700 5700 5699 5699 5699 5699 5699 5699 5699 5699 5700 5700 5701 5701 5702 5703
5711 5710 5709 5708 5707 5706 5705 5704 5703 5703 5702 5701 5700 5700 5699 5698 5697 5696 5696 5695 5695 5695 5695 5695 5694 5694 5693 5693 5692 5691 5691 5690 5690 5689 5689 5689 5688 5688 5687 5687 5687 5687 5688 5688 5688 5688 5689 5690 5690
5704 5703 5702 5700 5699 5697 5696 5696 5695 5694 5693 5692 5691 5691 5690 5689 5689 5688 5687 5687 5686 5686 5685 5685 5684 5683 5683 5682 5681 5680 5680 5679 5679 5678 5678 5677 5677 5676 5676 5676 5675 5676 5676 5676 5676 5676 5677 5677 5678
5697 5696 5694 5692 5691 5689 5688 5686 5687 5685 5684 5683 5683 5682 5682 5681 5680 5680 5679 5678 5677 5676 5676 5675 5674 5673 5672 5671 5670 5670 5669 5669 5668 5668 5667 5666 5666 5665 5665 5664 5664 5664 5664 5664 5664 5664 5664 5665 5665
5690 5688 5687 5686 5683 5682 5680 5678 5679 5676 5676 5675 5675 5674 5674 5673 5672 5671 5670 5669 5668 5667 5666 5665 5664 5663 5662 5661 5660 5659 5658 5657 5657 5656 5655 5655 5654 5654 5653 5653 5653 5652 5652 5652 5652 5652 5653 5653 5653
5683 5682 5680 5678 5676 5675 5674 5671 5670 5669 5668 5668 5667 5667 5666 5665 5664 5663 5661 5660 5659 5658 5657 5655 5654 5653 5652 5651 5650 5648 5647 5646 5645 5645 5644 5643 5643 5642 5642 5642 5641 5641 5641 5641 5641 5640 5640 5641 5641
5677 5675 5673 5670 5669 5668 5666 5663 5663 5663 5661 5660 5660 5659 5658 5656 5655 5654 5653 5651 5650 5649 5648 5647 5645 5643 5642 5641 5640 5638 5637 5636 5635 5634 5633 5633 5632 5631 5631 5630 5630 5630 5629 5629 5629 5629 5629 5629 5629
5670 5668 5667 5664 5662 5661 5658 5656 5657 5655 5654 5652 5651 5650 5649 5648 5647 5645 5644 5643 5642 5640 5639 5637 5635 5634 5632 5630 5629 5628 5627 5626 5625 5624 5623 5622 5622 5621 5620 5619 5618 5618 5618 5617 5617 5617 5617 5617 5617
5662 5661 5660 5657 5654 5653 5651 5650 5650 5648 5646 5645 5643 5642 5641 5640 5638 5637 5636 5634 5633 5631 5630 5628 5626 5623 5621 5619 5618 5618 5617 5616 5615 5614 5613 5612 5611 5611 5610 5609 5608 5607 5606 5606 5606 5606 5605 5605 5605
5657 5654 5652 5650 5647 5645 5645 5643 5643 5640 5639 5637 5636 5634 5633 5631 5630 5628 5627 5625 5624 5622 5620 5618 5616 5614 5611 5610 5608 5607 5607 5606 5605 5604 5604 5603 5602 5600 5599 5598 5597 5596 5595 5595 5595 5595 5594 5594 5594
5650 5648 5645 5643 5641 5639 5637 5639 5635 5633 5631 5629 5628 5626 5625 5623 5622 5620 5618 5616 5614 5612 5610 5608 5606 5604 5602 5600 5599 5598 5598 5597 5596 5595 5594 5593 5592 5590 5589 5588 5586 5586 5585 5584 5584 5584 5583 5583 5583
5642 5640 5639 5637 5635 5632 5630 5632 5628 5626 5623 5622 5620 5618 5617 5615 5613 5611 5609 5607 5605 5603 5601 5599 5596 5595 5593 5591 5590 5589 5588 5587 5587 5585 5584 5583 5582 5580 5579 5577 5576 5575 5574 5573 5573 5573 5572 5572 5572